Weather History for Keahole Point, HI

Change the Weather History Date:

Thursday, December 27, 2012

  Actual Average Record
Temperature  
Mean Temperature 76 °F -  
Max Temperature 81 °F 79 °F 87 °F (1988)
Min Temperature 70 °F 67 °F 64 °F (1989)
Cooling Degree Days 10    
Growing Degree Days 26 (Base 50)    
Moisture  
Dew Point 63 °F    
Average Humidity 64    
Maximum Humidity 73    
Minimum Humidity 54    
Precipitation  
Precipitation 0.00 in - - ()
Sea Level Pressure  
Sea Level Pressure 29.97 in    
Wind  
Wind Speed 7 mph (SSE)    
Max Wind Speed 12 mph    
Max Gust Speed -    
Visibility 10 miles    
Events      
Averages and records for this station are not official NWS values.
T = Trace of Precipitation, MM = Missing Value Source: NWS Daily Summary

Daily Weather History Graph

Daily Weather History Graph

Search for Another Location

Airport:

Trip Planner

Search our weather history database for the weather conditions in past years. The results will help you decide how hot, cold, wet, or windy it might be!

Date:

Astronomy

Dec. 27, 2012 Rise Set
Actual Time 6:57 AM HST 5:54 PM HST
Civil Twilight 6:33 AM HST 6:18 PM HST
Nautical Twilight 6:05 AM HST 6:45 PM HST
Astronomical Twilight 5:38 AM HST 7:12 PM HST
Moon 5:42 PM HST (12/27) 6:20 AM HST (12/27)
Length of Visible Light 11h 44m
Length of Day
10h 56m
Full, 100% of the Moon is Illuminated
Dec 27
Full
Dec 28
Full
Jan 4
Last Quarter
Jan 11
New
Jan 18
First Quarter

Hourly Weather History & Observations

Time (HST) Temp. Heat Index Dew Point Humidity Pressure Visibility Wind Dir Wind Speed Gust Speed Precip Events Conditions
12:53 AM 75.0 °F - 64.0 °F 69% 30.02 in 10.0 mi ESE 9.2 mph - N/A   Clear
1:53 AM 73.9 °F - 64.0 °F 71% 30.01 in 10.0 mi ESE 6.9 mph - N/A   Mostly Cloudy
2:53 AM 73.9 °F - 62.1 °F 66% 29.99 in 10.0 mi East 6.9 mph - 0.00 in   Overcast
3:53 AM 73.0 °F - 62.1 °F 68% 29.98 in 10.0 mi ENE 3.5 mph - N/A   Mostly Cloudy
4:53 AM 71.1 °F - 62.1 °F 73% 29.97 in 10.0 mi ENE 4.6 mph - N/A   Clear
5:53 AM 70.0 °F - 59.0 °F 68% 29.97 in 10.0 mi ENE 4.6 mph - N/A   Clear
6:53 AM 70.0 °F - 57.9 °F 65% 29.98 in 10.0 mi ENE 3.5 mph - N/A   Clear
7:53 AM 72.0 °F - 60.1 °F 66% 29.99 in 10.0 mi NNE 3.5 mph - N/A   Clear
8:53 AM 77.0 °F - 63.0 °F 62% 29.99 in 10.0 mi Calm Calm - N/A   Clear
9:53 AM 79.0 °F - 64.9 °F 62% 29.99 in 10.0 mi SSW 8.1 mph - N/A   Clear
10:53 AM 80.1 °F 81.9 °F 64.9 °F 60% 29.98 in 10.0 mi SSW 10.4 mph - N/A   Clear
11:53 AM 81.0 °F 82.7 °F 64.9 °F 58% 29.96 in 10.0 mi South 11.5 mph - N/A   Clear
12:53 PM 80.1 °F 81.7 °F 64.0 °F 58% 29.93 in 10.0 mi SSW 11.5 mph - N/A   Clear
1:53 PM 81.0 °F 82.2 °F 63.0 °F 54% 29.92 in 10.0 mi WSW 10.4 mph - N/A   Clear
2:53 PM 81.0 °F 82.7 °F 64.9 °F 58% 29.91 in 10.0 mi WSW 10.4 mph - N/A   Clear
3:53 PM 80.1 °F 81.7 °F 64.0 °F 58% 29.91 in 10.0 mi SSW 9.2 mph - N/A   Clear
4:53 PM 80.1 °F 81.7 °F 64.0 °F 58% 29.92 in 10.0 mi SSW 9.2 mph - N/A   Clear
5:53 PM 78.1 °F - 64.9 °F 64% 29.94 in 10.0 mi SSW 8.1 mph - N/A   Overcast
6:53 PM 77.0 °F - 64.0 °F 64% 29.96 in 10.0 mi South 4.6 mph - N/A   Overcast
7:53 PM 77.0 °F - 64.9 °F 66% 29.97 in 10.0 mi South 3.5 mph - N/A   Mostly Cloudy
8:53 PM 77.0 °F - 64.0 °F 64% 29.98 in 10.0 mi Calm Calm - N/A   Scattered Clouds
9:53 PM 75.9 °F - 64.9 °F 69% 29.99 in 10.0 mi West 4.6 mph - N/A   Mostly Cloudy
10:53 PM 75.9 °F - 64.0 °F 67% 29.98 in 10.0 mi WNW 4.6 mph - N/A   Clear
11:53 PM 73.9 °F - 63.0 °F 68% 29.97 in 10.0 mi ENE 3.5 mph - N/A   Clear